Regional Weather Roundup
Issued by NWS

Home | Current Version | Previous Version | Text Only | Print | Product List | Glossary Off
Versions: 1 2 3 4 5 6 7 8 9 10 11 12 13 14 15 16 17 18 19 20 21 22 23 24 25 26 27 28 29 30 31 32 33 34 35 36 37 38 39 40 41 42 43 44 45 46 47 48 49 50

000
ASUS43 KLSX 100707
RWRMO

WEATHER SUMMARY FOR MISSOURI
NATIONAL WEATHER SERVICE SPRINGFIELD MO
200 AM CDT THU JUL 10 2014

NOTE: "FAIR" INDICATES FEW OR NO CLOUDS BELOW 12,000 FEET WITH NO
       SIGNIFICANT WEATHER AND/OR OBSTRUCTIONS TO VISIBILITY.
       CURRENT SKY AND/OR WEATHER CONDITIONS ARE NOT AVAILABLE FOR
       CHILLICOTHE AND FARMINGTON.

MOZ001>031-035>038-043-044-053-054-100800-
...NORTHERN AND WESTERN MISSOURI...

CITY           SKY/WX    TMP DP  RH WIND       PRES   REMARKS
KANSAS CTY INT CLOUDY    71  59  65 SE8       30.07R
KANSAS C DTWN  CLOUDY    75  57  53 SE10      30.05S
LEE`S SUMMIT   PTCLDY    71  58  63 SE6       30.07F
ST JOSEPH      CLOUDY    71  61  70 S6        30.06S
CHILLICOTHE      N/A     68  61  78 CALM      30.09S
KIRKSVILLE     MOCLDY    62  58  86 SE3       30.10S

$$
MOZ066>068-077>081-088>096-101>105-100800-
...SOUTHWEST MISSOURI...

CITY           SKY/WX    TMP DP  RH WIND       PRES   REMARKS
SPRINGFIELD    CLEAR     67  61  81 SE5       30.08F
JOPLIN         CLEAR     68  58  70 E7        30.06F

$$
MOZ032>034-039>042-045>050-055>058-069>072-100800-
...CENTRAL MISSOURI...

CITY           SKY/WX    TMP DP  RH WIND       PRES   REMARKS
COLUMBIA       PTCLDY    64  59  83 CALM      30.09S
JEFFERSON CITY PTCLDY    63  59  87 CALM      30.08F
ROLLA            N/A    N/A N/A N/A MISG      30.08F
SEDALIA        PTCLDY    66  62  87 E3        30.09S
WHITEMAN AFB   PTCLDY    65  56  72 S2        30.07F
OSAGE BEACH    CLEAR     63  57  82 CALM      30.08F

$$
MOZ051-052-059>065-100800-
...EAST CENTRAL MISSOURI...

CITY           SKY/WX    TMP DP  RH WIND       PRES   REMARKS
ST LOUIS INTL  PTCLDY    67  58  72 CALM      30.09S
SPIRIT OF STL  PTCLDY    61  59  93 CALM      30.08S
ST CHARLES     PTCLDY    62  59  90 CALM      30.08S

$$
MOZ072>076-082>087-097>100-106>115-100800-
...SOUTH CENTRAL AND SOUTHEAST MISSOURI...

CITY           SKY/WX    TMP DP  RH WIND       PRES   REMARKS
CAPE GIRARDEAU PTCLDY    72  63  73 N5        30.05S
FARMINGTON     PTCLDY    64  59  82 CALM      30.11
POPLAR BLUFF   CLEAR     68  64  87 CALM      30.05S
WEST PLAINS    CLEAR     65  60  84 CALM      30.10F

$$


USA.gov is the U.S. government's official web portal to all federal, state and local government web resources and services.